Flag for Montenegro Weather past 2 weeks in Podgorica, Montenegro

Now
48 °F

Thunderstorms. Broken clouds.


Feels Like: 42 °F
Forecast: 43 / 53 °F
Wind: 18 mph from Southeast

Location: Podgorica Titograd

Current Time: Jan 30, 2015 at 1:36:24 PM

Latest Report: Jan 30, 2015 at 1:00 PM


Visibility: 3 mi

Pressure: 29.18 "Hg

Humidity: 100%

Dew point: 48 °F

Location of PodgoricaLocation

Historic Weather in Podgorica — Graph

°F

Podgorica temperature yesterday

Maximum temperature yesterday: 52 °F (at 1:30 PM)
Minimum temperature yesterday: 30 °F (at 7:00 AM)
Average temperature yesterday: 41 °F

Past Weeks' High & Low Weather Summary

 TemperatureHumidityPressure
High57 °F (Jan 16, 2:30 PM)100% (Jan 17, 7:30 PM)30.27 "Hg (Jan 17, 7:30 PM)
Low30 °F (Jan 16, 4:30 AM)35% (Jan 26, 12:00 PM)29.18 "Hg (Jan 30, 12:00 PM)
Average46 °F79%29.90 "Hg
* Reported Jan 15 12:00 Noon — Jan 30 12:30 PM, Podgorica, Weather by CustomWeather, © 2014

Note: Actual official high and low records may vary slightly from our data, if they occured in-between our weather recording intervals... More about our weather records

Advertising

Podgorica weather history for previous 24 hours

 ConditionsComfort  
Time TempWeatherWind HumidityBarometerVisibility
12:30 PM
Jan 30
48 °FRain. Cloudy.24 mph94%29.18 "Hg4 mi
12:00 PM48 °FHeavy rain. Cloudy.25 mph94%29.18 "Hg3 mi
11:30 AM48 °FRain. Cloudy.25 mph94%29.21 "Hg4 mi
11:00 AM48 °FRain. Cloudy.24 mph94%29.24 "Hg4 mi
10:30 AM48 °FRain. Cloudy.26 mph94%29.24 "Hg4 mi
10:00 AM48 °FRain. Cloudy.21 mph94%29.24 "Hg4 mi
9:30 AM48 °FRain. Cloudy.24 mph94%29.27 "Hg4 mi
9:00 AM46 °FRain. Cloudy.25 mph93%29.30 "Hg4 mi
8:30 AM46 °FRain. Cloudy.17 mph93%29.30 "Hg4 mi
8:00 AM46 °FRain. Cloudy.23 mph93%29.33 "Hg4 mi
7:30 AM46 °FRain. Cloudy.23 mph100%29.33 "Hg4 mi
7:00 AM46 °FRain. Cloudy.22 mph93%29.33 "Hg5 mi
6:30 AM46 °FRain. Partly cloudy.17 mph93%29.36 "HgN/A
6:00 AM46 °FLight rain. Partly cloudy.16 mph87%29.39 "HgN/A
5:30 AM46 °FLight rain. Partly cloudy.17 mph87%29.39 "HgN/A
5:00 AM46 °FLight rain. Partly cloudy.14 mph87%29.39 "HgN/A
4:30 AM46 °FRain. Partly cloudy.15 mph87%29.42 "HgN/A
4:00 AM46 °FRain. Mostly cloudy.15 mph87%29.42 "HgN/A
3:30 AM46 °FLight rain. Mostly cloudy.17 mph87%29.45 "HgN/A
3:00 AM46 °FLight rain. Mostly cloudy.15 mph87%29.45 "HgN/A
2:30 AM45 °FLight rain. Mostly cloudy.6 mph93%29.47 "HgN/A
2:00 AM43 °FLight rain. Mostly cloudy.8 mph87%29.50 "HgN/A
1:30 AM41 °FLight rain. Mostly cloudy.5 mph87%29.50 "Hg6 mi
1:00 AM41 °FLight rain. Mostly cloudy.5 mph87%29.53 "Hg6 mi
12:30 AM39 °FPassing clouds.3 mph87%29.53 "Hg5 mi
12:00 AM39 °FPassing clouds.6 mph87%29.56 "Hg5 mi
11:30 PM
Jan 29
39 °FLight rain. Overcast.3 mph81%29.56 "Hg5 mi
11:00 PM39 °FPassing clouds.5 mph75%29.56 "HgN/A
10:30 PM37 °FPassing clouds.3 mph81%29.59 "HgN/A
10:00 PM39 °FPassing clouds.No wind75%29.59 "HgN/A
9:30 PM37 °FPassing clouds.No wind75%29.62 "HgN/A
9:00 PM39 °FPassing clouds.1 mph75%29.62 "HgN/A
8:30 PM39 °FPassing clouds.1 mph75%29.62 "HgN/A
8:00 PM41 °FPassing clouds.2 mph70%29.62 "HgN/A
7:30 PM43 °FPassing clouds.5 mph66%29.62 "HgN/A
7:00 PM43 °FPassing clouds.3 mph66%29.62 "HgN/A
6:30 PM43 °FPassing clouds.2 mph61%29.62 "HgN/A
6:00 PM43 °FPassing clouds.No wind61%29.62 "HgN/A
5:30 PM43 °FPassing clouds.3 mph66%29.62 "HgN/A
5:00 PM45 °FPassing clouds.5 mph61%29.62 "HgN/A
4:30 PM46 °FPartly sunny.3 mph53%29.62 "HgN/A
4:00 PM48 °FPartly sunny.3 mph50%29.65 "HgN/A
3:30 PM50 °FScattered clouds.3 mph47%29.65 "HgN/A
3:00 PM52 °FPassing clouds.2 mph44%29.65 "HgN/A
2:30 PM52 °FPassing clouds.3 mph41%29.65 "HgN/A
2:00 PM52 °FPassing clouds.2 mph44%29.65 "HgN/A
1:30 PM52 °FPassing clouds.1 mph41%29.65 "HgN/A
1:00 PM50 °FSunny.1 mph43%29.68 "Hg10 mi
Weather by CustomWeather, © 2014

See weather overviewHow to use our weather pages